RH
19 20 22 25 27 28 29 30 30 30 30 31 33 35 36 36 37 40 43 41 38 37 39 41 42 42 41 40 39 39 40 41 40 41 44 50 54 57 59 60 60 58 57 58 56 50 48 49 47 44 45 47
17 17 18 20 22 25 26 28 28 28 28 27 28 29 30 31 31 33 36 36 33 34 36 39 42 42 42 40 38 38 39 39 39 39 40 43 48 52 54 55 56 56 54 55 57 54 48 48 49 47 44 45
19 18 18 18 20 22 23 25 26 27 28 27 27 27 27 26 26 27 29 29 28 29 32 35 38 39 39 39 38 36 37 38 38 39 39 39 41 44 48 50 52 53 53 52 53 54 52 47 46 48 46 43
16 18 19 20 21 21 23 24 25 26 27 28 28 28 27 26 24 24 24 24 23 24 26 30 34 34 33 35 35 32 31 31 34 37 38 38 37 38 41 45 47 49 50 51 51 51 52 50 45 44 46 45
9 11 13 16 18 20 23 24 25 26 26 27 27 28 29 29 27 25 23 21 20 20 22 24 27 28 29 32 33 31 28 25 26 30 34 36 36 35 36 39 42 44 46 48 50 51 52 52 48 44 44 45
7 7 8 9 11 14 17 21 24 26 27 27 27 27 28 29 30 29 27 24 21 19 20 21 23 24 25 27 30 30 26 22 21 24 28 30 32 32 33 35 37 40 42 44 46 48 52 54 53 48 43 43
8 7 6 6 7 8 10 13 17 21 24 27 28 28 28 28 29 30 30 29 26 22 21 21 21 21 22 24 26 28 25 21 19 22 26 27 28 28 28 30 32 35 38 42 44 45 48 53 55 52 47 43
9 9 8 7 7 6 7 7 9 12 16 20 25 28 30 30 29 29 30 31 31 28 25 24 23 22 22 22 23 25 25 23 20 21 24 26 25 23 22 23 26 29 32 36 41 43 45 48 52 54 52 47
8 9 9 9 8 7 7 6 6 7 9 11 15 20 26 29 31 31 31 32 33 33 31 29 28 27 25 24 24 23 25 25 22 21 23 26 26 23 20 19 20 22 25 29 34 38 42 45 47 51 54 53
8 8 8 9 9 9 8 8 7 7 7 7 8 11 15 21 26 30 33 34 35 35 36 35 34 33 32 30 28 26 26 26 25 23 23 26 27 25 22 19 18 17 20 22 27 32 35 39 42 46 50 54
8 8 8 8 9 9 9 9 8 8 8 7 7 7 9 11 15 21 27 31 35 37 38 39 39 38 38 37 35 32 30 29 28 27 25 26 27 26 25 24 22 19 18 18 20 24 28 32 36 39 43 48
8 8 8 8 8 9 9 9 9 9 9 8 8 7 7 8 8 11 15 21 27 33 37 41 42 41 42 42 42 39 37 36 34 33 31 29 28 27 26 26 27 24 21 18 17 19 21 25 31 34 37 41
8 8 8 9 9 9 9 9 9 9 9 9 9 8 8 8 8 8 8 11 15 21 28 35 40 42 44 44 45 45 44 43 41 40 39 37 35 31 28 26 28 29 27 23 19 19 18 20 26 31 33 36
8 8 9 9 9 9 9 9 10 10 10 10 9 9 9 9 9 8 8 8 9 11 15 21 29 36 41 44 46 47 48 48 47 46 46 45 43 40 35 31 29 31 33 29 23 21 21 20 22 27 30 32
8 9 9 9 9 9 9 10 10 10 10 10 10 10 9 10 9 9 9 9 9 9 9 11 15 21 29 37 41 45 48 50 50 50 51 51 50 48 44 39 35 35 36 35 30 25 24 24 23 24 28 30
8 8 8 9 9 9 9 10 10 10 10 10 10 10 10 10 10 10 9 9 9 9 9 9 9 11 15 22 29 36 42 48 51 52 53 54 54 53 50 46 42 41 40 39 37 32 29 29 28 26 27 29
6 6 7 7 8 8 8 9 10 9 10 10 10 10 11 10 10 10 10 10 10 10 10 10 10 10 9 11 15 20 28 37 45 49 52 54 56 55 53 50 47 45 47 47 44 40 36 34 33 31 29 30
4 5 5 6 6 7 7 8 9 9 9 10 10 10 11 11 11 11 10 10 10 10 11 10 10 10 10 10 10 11 15 21 29 37 45 50 54 55 54 52 49 47 50 53 52 49 45 41 39 36 35 34
4 4 4 5 5 5 6 7 7 8 9 9 10 10 11 11 11 11 11 11 11 11 11 11 11 11 11 10 10 10 10 11 15 20 28 37 44 49 52 53 51 48 50 54 56 55 52 49 46 43 41 39
3 4 4 4 4 5 5 6 6 7 7 8 9 10 11 11 12 12 12 12 11 11 11 11 11 11 11 11 11 11 10 10 10 11 14 19 26 34 40 46 49 49 49 52 55 56 56 54 51 49 47 45
3 3 3 3 3 4 4 4 5 6 6 7 7 9 10 10 11 12 13 13 12 12 12 12 12 12 11 11 11 11 12 11 11 11 10 11 13 17 23 29 37 43 45 48 52 55 56 57 55 52 51 50
3 3 3 3 3 3 3 4 4 4 5 6 6 7 8 9 10 11 12 13 13 13 13 12 12 12 12 12 12 11 12 12 12 12 11 11 10 10 12 15 20 27 32 38 44 50 54 56 57 56 53 51
3 3 3 3 3 3 3 3 3 4 4 4 5 5 6 7 8 10 11 12 13 14 14 14 13 13 13 12 12 12 12 12 12 12 12 12 11 10 10 10 11 13 17 22 29 38 46 52 55 56 55 53
3 3 3 3 3 3 3 3 3 3 3 4 4 4 4 5 6 7 9 10 11 13 14 14 14 14 14 13 13 13 13 12 12 12 12 12 12 12 11 11 10 10 10 12 15 20 28 37 46 51 54 54
3 3 3 3 3 3 3 3 3 3 3 3 3 4 4 4 4 5 6 7 9 10 12 13 14 15 15 15 15 14 14 13 13 13 13 12 12 12 12 12 12 11 11 10 10 11 14 20 28 36 43 48
3 3 3 3 3 3 3 3 3 3 3 3 3 3 3 4 4 4 4 5 6 7 9 10 12 14 15 15 15 16 16 15 14 14 13 13 13 12 12 12 12 12 12 11 11 11 11 12 14 20 26 34
3 3 3 3 3 3 3 3 3 3 3 3 3 3 3 3 4 4 4 4 5 5 6 7 9 11 12 14 14 15 16 16 16 16 15 14 13 13 13 13 13 12 12 12 12 12 12 11 11 12 15 19
3 3 3 3 3 3 3 3 3 3 3 3 3 3 3 4 4 3 3 4 4 4 5 5 6 8 9 10 12 13 15 16 17 17 17 16 15 14 14 13 13 13 13 12 12 13 13 13 13 12 12 13
3 3 3 3 3 3 3 3 3 3 3 3 3 3 3 3 3 4 3 3 3 4 4 4 5 6 7 8 9 10 12 14 15 16 17 17 17 16 15 15 14 14 14 13 13 13 13 13 13 13 13 13
3 3 3 3 3 3 3 3 3 3 3 3 3 3 3 3 3 3 3 3 4 3 3 4 4 4 5 6 7 8 9 11 13 14 15 17 17 17 16 16 16 15 15 14 14 13 13 13 13 14 14 14
2 2 3 3 3 3 3 3 3 3 3 3 3 3 3 3 3 2 3 3 3 3 3 4 4 4 4 5 5 6 7 8 10 11 13 14 15 16 17 17 17 17 16 16 15 14 14 14 13 14 14 15
Wind_Speed
132 131 129 128 127 127 126 125 124 123 123 122 121 120 119 118 116 114 113 113 112 111 110 109 108 107 106 105 103 101 99 98 96 94 93 92 92 92 92 92 91 90 88 86 86 87 87 87 87 86 86 87
134 134 132 131 130 130 129 129 128 127 126 125 124 123 123 122 120 118 117 116 115 114 113 112 111 110 110 109 107 105 104 103 101 99 97 96 96 96 95 95 94 93 91 90 89 89 90 90 90 89 89 89
135 135 135 134 133 133 132 132 131 131 130 129 128 127 126 125 124 122 121 120 118 117 115 115 114 114 113 112 111 109 108 107 105 103 102 101 100 99 98 98 97 96 95 93 92 91 92 93 93 93 92 91
134 135 135 135 135 135 135 134 134 134 133 132 131 130 130 129 128 126 125 124 122 120 118 118 117 117 116 114 114 113 112 110 109 108 106 105 103 102 101 101 100 99 98 97 95 94 94 95 96 96 95 94
131 132 134 135 135 136 136 136 136 136 136 136 135 134 133 132 131 130 129 128 126 124 122 121 120 120 118 117 117 116 115 114 112 111 110 109 108 106 104 104 103 103 102 101 99 98 97 97 98 98 98 98
128 130 131 132 134 135 136 136 137 137 138 138 138 137 136 135 134 133 132 132 131 128 126 125 124 123 121 120 119 119 119 117 115 113 112 112 111 110 108 107 106 106 105 104 103 102 100 100 100 100 101 101
126 128 129 130 131 133 134 136 137 137 138 139 139 139 139 138 137 136 135 135 134 133 131 129 128 126 125 124 123 122 121 120 118 116 115 115 114 113 112 111 110 109 108 107 107 105 104 103 103 102 102 102
123 125 127 128 129 130 132 134 135 137 138 138 139 139 140 140 140 139 138 138 137 136 135 133 132 130 129 128 127 125 124 123 121 119 118 118 117 116 115 113 112 112 111 110 110 109 107 106 106 104 104 104
119 122 124 126 127 128 129 131 132 134 136 137 138 139 140 141 141 141 141 140 140 139 138 137 136 134 133 132 131 129 127 126 125 123 121 121 121 119 118 116 115 114 113 113 112 111 110 109 108 107 106 106
118 119 121 123 125 126 127 128 130 131 133 135 136 138 139 140 141 142 142 142 142 142 141 140 139 138 137 136 134 133 131 130 128 127 125 124 124 123 121 119 118 116 115 115 114 114 113 111 110 109 109 108
119 119 120 121 122 124 126 127 128 130 131 133 134 136 137 138 140 141 142 143 143 143 143 143 142 141 140 139 138 137 135 134 132 131 129 128 127 126 124 122 121 119 119 118 116 116 115 113 112 111 111 110
118 118 119 120 121 122 123 125 127 128 130 131 132 133 135 137 138 139 140 142 143 144 144 144 144 144 143 142 141 140 139 137 136 134 133 131 130 129 127 125 124 123 122 121 119 118 117 115 114 114 113 113
119 118 119 120 121 122 123 124 126 127 128 130 131 131 133 135 136 137 138 140 141 142 144 145 145 145 145 144 144 143 142 141 139 138 136 135 134 133 131 129 128 126 125 124 122 120 119 117 116 116 116 115
121 121 121 121 121 122 123 124 125 126 127 129 130 130 131 133 135 135 136 137 139 140 142 144 145 146 146 146 146 145 144 144 143 141 140 139 137 136 135 133 131 129 128 128 126 124 121 120 118 118 118 118
122 122 123 122 122 123 123 124 125 126 127 128 129 130 131 132 133 133 135 136 137 138 140 142 143 145 146 147 147 147 146 146 145 144 144 142 141 140 139 137 135 133 132 130 129 127 124 123 121 121 120 120
119 121 122 123 124 124 124 125 125 126 126 127 128 129 130 132 132 133 133 134 136 137 138 139 141 142 144 146 147 148 148 147 147 147 146 146 145 144 143 141 139 137 135 133 132 130 128 127 125 124 123 123
113 116 118 120 122 123 124 124 125 126 126 127 127 129 130 131 132 133 133 133 134 136 137 138 139 140 142 144 146 147 147 148 149 149 148 148 148 147 146 145 143 140 138 137 136 134 133 131 129 128 126 125
106 109 112 114 117 120 121 123 125 126 126 127 128 128 129 130 131 132 133 134 134 135 136 137 138 139 140 141 143 145 146 148 149 149 149 149 149 149 149 148 146 144 141 140 139 138 137 135 133 131 130 128
99 102 105 108 111 114 117 120 122 124 126 127 128 129 129 130 131 132 133 134 134 135 135 136 136 138 139 139 140 142 143 146 147 149 149 150 151 151 150 150 149 147 145 143 142 141 140 139 137 135 133 132
93 97 100 103 106 110 113 116 119 122 124 126 127 129 130 131 131 133 134 134 135 135 136 136 136 137 137 138 139 140 141 143 145 146 148 149 150 151 151 151 151 150 148 147 145 144 143 142 141 139 137 135
87 91 95 98 101 105 108 111 115 118 121 123 126 128 129 131 132 133 134 135 136 136 136 137 137 137 137 137 137 138 139 141 142 143 145 147 149 150 150 151 151 151 150 149 148 147 146 145 144 143 141 139
82 86 90 93 96 99 101 104 108 111 115 119 122 125 127 129 131 133 135 136 137 137 137 137 138 138 138 138 137 137 138 139 141 142 143 144 146 147 148 149 150 151 151 151 150 149 148 147 146 146 145 143
78 81 84 88 91 95 97 100 103 105 109 112 116 119 122 125 128 131 134 135 137 138 139 139 139 138 139 139 138 138 138 138 139 141 141 142 143 144 145 146 148 149 150 150 151 150 150 150 149 148 147 147
73 76 80 83 86 90 93 96 99 102 104 107 110 112 115 118 122 126 130 132 134 136 138 140 140 140 139 139 139 139 139 139 139 140 141 141 142 142 143 144 145 146 148 149 149 150 150 150 150 150 149 149
70 72 76 78 81 85 88 92 95 97 100 103 105 108 111 114 116 119 123 127 130 133 136 138 139 140 140 141 140 141 141 141 141 141 141 141 141 141 141 142 143 144 145 146 147 148 149 149 150 150 150 150
65 69 71 74 77 80 84 88 91 93 95 98 101 103 106 110 113 115 117 120 124 128 131 134 136 138 140 141 141 141 142 142 142 142 142 142 141 141 141 141 142 143 143 143 144 145 146 147 148 149 150 150
59 62 66 70 73 77 81 84 87 89 91 94 97 99 102 105 109 112 114 116 119 122 125 128 131 134 137 139 140 141 142 142 143 143 143 143 143 142 142 141 141 142 142 142 142 143 144 144 146 147 148 149
54 56 59 63 68 73 77 81 84 86 88 90 93 96 99 102 105 108 110 112 115 118 120 123 126 129 132 135 137 138 140 141 142 143 143 143 143 143 143 142 142 143 142 142 141 142 142 142 143 145 146 147
50 52 53 57 62 66 71 76 80 83 85 87 89 92 95 98 101 104 106 108 111 113 116 119 122 125 128 130 132 134 136 138 140 141 142 143 143 143 143 143 144 144 144 143 142 142 141 141 142 142 143 145
46 48 50 53 57 61 64 69 74 77 80 83 86 88 91 94 97 100 102 105 107 109 111 114 117 121 124 127 129 131 133 135 137 139 141 142 142 142 142 143 143 144 145 145 144 143 142 141 141 141 142 143
43 44 46 50 53 57 60 63 67 70 74 78 81 85 88 90 93 96 98 101 103 105 107 109 113 115 118 122 125 127 130 132 134 137 138 140 141 141 142 142 142 143 144 145 145 145 144 143 143 142 142 142
Wind_Direction
261 260 260 259 259 258 258 258 258 257 257 257 257 257 257 257 256 254 254 254 254 253 253 252 252 251 251 250 249 248 247 246 245 243 242 242 242 241 240 240 239 239 239 240 240 240 238 237 236 234 233 233
260 260 259 258 257 257 256 257 257 257 256 256 256 256 256 256 255 254 253 253 253 253 252 252 252 251 251 250 250 249 248 247 246 244 243 242 242 242 241 240 240 240 240 240 241 241 240 238 237 236 234 233
258 258 258 257 256 256 255 255 255 255 255 255 255 255 255 255 255 254 254 253 252 252 252 251 251 251 251 250 250 249 248 248 247 245 244 243 242 242 242 242 241 240 240 241 241 242 241 240 238 237 236 234
257 257 257 256 256 255 254 254 253 253 253 253 253 254 254 254 255 254 254 253 252 251 251 251 250 251 250 250 250 250 249 248 247 246 245 244 242 241 242 242 242 242 241 241 242 242 242 241 240 238 237 236
256 256 255 255 255 254 253 253 252 252 251 251 251 252 252 252 253 254 254 254 253 252 251 250 250 250 250 249 249 249 249 248 247 247 246 245 244 243 242 241 242 242 242 242 242 242 242 242 241 240 238 237
256 255 255 254 254 253 253 252 252 251 251 250 250 250 250 250 251 251 252 253 253 253 251 250 250 250 249 249 248 249 249 249 248 247 247 246 245 244 243 242 241 242 242 242 242 242 242 242 241 241 239 238
256 255 255 254 253 252 252 251 251 250 250 250 249 249 249 249 249 249 250 251 251 252 252 251 250 250 249 249 248 248 248 249 248 247 247 246 246 245 244 243 242 241 241 242 242 242 241 241 241 241 240 239
254 254 254 254 253 252 251 251 250 250 249 249 248 248 248 248 248 248 248 248 249 250 251 251 250 250 249 249 248 248 248 248 248 248 247 246 246 245 245 244 243 242 241 241 241 241 241 241 241 240 240 240
254 253 253 253 253 252 252 251 250 249 249 249 248 248 247 247 247 247 247 247 247 248 249 249 250 250 249 249 249 248 248 248 248 248 247 246 246 246 245 245 244 243 242 241 241 241 241 240 240 240 240 240
255 254 253 252 252 252 252 251 250 250 249 248 248 247 247 246 246 246 246 246 246 246 247 247 248 248 249 249 249 249 248 248 248 247 247 246 246 246 246 245 245 244 243 242 241 241 240 240 240 240 240 239
256 255 254 253 252 251 251 251 251 250 249 248 248 247 247 246 246 245 245 245 245 245 245 246 246 246 247 247 248 248 248 248 247 247 247 246 246 246 246 245 245 245 244 243 242 242 241 240 240 240 239 239
258 256 255 254 253 252 251 250 250 250 249 249 248 247 247 246 246 245 245 245 244 244 244 244 245 245 245 246 246 247 247 247 247 247 247 247 247 246 246 245 245 245 245 244 243 242 242 241 240 240 239 239
259 257 256 255 254 253 252 251 250 249 249 249 248 248 247 246 246 245 245 244 244 244 244 244 244 244 244 245 245 245 246 246 246 246 246 247 247 247 246 246 245 245 245 245 244 243 243 242 241 240 240 239
258 257 256 255 254 253 253 252 251 250 249 248 248 248 247 247 246 245 245 244 244 244 243 243 243 243 244 244 244 244 244 245 245 246 246 246 246 246 246 246 246 245 244 245 245 244 243 242 242 241 241 240
257 256 256 255 254 253 253 252 251 250 249 249 248 248 247 247 247 246 245 245 244 244 243 243 243 243 243 243 243 243 243 244 244 244 245 245 245 245 245 246 246 245 245 245 245 245 244 243 242 242 241 241
256 255 255 254 254 253 252 252 252 251 250 249 248 248 247 247 247 246 246 245 244 244 243 243 243 243 242 243 243 243 243 243 243 243 244 244 244 245 245 245 245 245 245 245 245 245 245 244 243 242 242 241
255 255 255 254 254 253 252 252 251 251 251 250 249 248 247 247 246 246 246 245 245 244 243 243 243 242 242 242 242 242 243 242 243 243 243 243 243 244 244 245 245 244 244 245 245 245 245 244 244 243 242 242
255 255 255 254 254 254 253 252 251 251 250 250 250 249 248 247 247 246 246 246 245 245 244 243 243 243 242 242 242 242 242 242 242 242 242 242 243 243 244 244 245 244 244 244 244 245 245 245 245 244 243 242
253 253 254 254 254 253 253 252 251 251 250 250 249 249 249 248 247 247 246 246 245 245 245 244 244 243 242 242 242 242 242 242 242 242 242 242 242 242 243 243 244 244 243 243 243 243 244 245 245 245 244 244
252 251 251 251 251 251 251 251 251 250 250 249 249 248 248 248 248 247 247 246 246 245 245 245 244 244 243 243 242 242 242 242 242 242 242 242 242 242 242 243 243 244 244 243 242 242 243 244 244 244 244 244
256 254 252 250 249 249 249 249 249 249 249 248 248 247 247 247 247 247 247 247 246 246 245 245 245 245 244 244 243 242 242 242 242 242 242 242 242 242 242 242 242 243 243 243 243 242 242 242 243 244 244 244
257 256 255 253 252 250 249 248 248 247 247 247 247 247 246 246 245 246 246 246 246 246 246 245 245 245 245 244 244 243 243 242 242 242 242 242 242 242 242 242 242 242 243 243 243 242 242 242 242 243 244 244
255 254 254 254 253 252 251 249 248 247 247 247 246 246 246 245 245 244 244 245 245 245 245 245 245 245 245 245 244 244 244 243 243 243 242 242 242 242 242 242 242 242 242 242 242 242 242 242 242 242 242 243
256 255 253 253 252 252 251 250 249 247 246 246 246 246 246 246 245 244 244 244 244 244 245 245 245 245 245 245 245 244 244 244 243 243 243 243 242 242 242 242 242 242 242 242 242 242 242 242 242 241 241 242
258 256 254 253 252 251 251 251 250 249 248 247 246 246 245 245 245 245 245 244 244 243 244 244 244 244 244 244 244 244 244 244 244 244 244 243 243 243 243 242 242 242 242 242 242 242 242 242 241 241 241 241
259 257 256 254 253 251 250 250 250 249 249 248 247 246 245 245 245 244 244 244 244 244 243 243 243 243 243 243 243 243 244 244 244 244 244 244 244 243 243 243 243 243 242 242 242 241 241 241 241 241 241 241
263 260 258 256 254 252 251 250 249 248 248 248 248 247 246 245 245 244 244 244 243 243 243 243 243 243 243 243 243 243 243 243 244 244 244 244 244 244 243 243 243 243 243 243 242 242 241 241 241 241 241 241
267 263 260 258 256 254 253 252 250 249 248 247 247 247 246 246 246 245 244 243 243 243 243 243 243 243 242 242 242 242 242 242 243 243 243 244 244 244 244 244 244 244 244 243 243 242 242 241 241 241 241 241
272 268 264 261 258 256 254 253 252 251 249 248 247 246 245 245 245 245 245 245 244 243 242 242 242 242 242 242 242 242 242 242 242 242 242 243 243 243 243 243 243 244 244 244 243 243 243 242 242 241 241 241
277 272 268 264 261 258 256 255 254 253 251 250 249 247 246 245 245 245 245 245 245 244 243 243 242 242 242 242 242 241 241 241 242 242 242 242 242 242 242 243 243 243 244 244 244 243 243 243 242 242 241 241
282 277 271 267 263 261 259 257 256 255 253 252 250 249 248 247 246 245 244 244 244 244 244 243 243 242 242 242 242 241 241 241 241 241 241 241 241 241 241 241 242 242 243 243 243 243 243 243 243 242 242 242